Wilmington, DE

11:02 AM EST on November 18, 2019 (GMT -0500)
New Castle County

Weather History for KILG - August, 2019

Change the Weather History Date:

Thursday, August 8, 2019

  Actual Average Record
Temperature  
Mean Temperature 78 °F 76 °F  
Max Temperature 89 °F 85 °F 105 °F (1918)
Min Temperature 67 °F 67 °F 53 °F (1989)
Degree Days  
Heating Degree Days 0 0  
Month to date heating degree days 0 0  
Since 1 June heating degree days 5 15  
Since 1 July heating degree days 0 0  
Cooling Degree Days 13 11  
Month to date cooling degree days 115 90  
Year to date cooling degree days 977 767  
Since 1 June cooling degree days 845 688  
Growing Degree Days 28 (Base 50)    
Moisture  
Dew Point 68 °F    
Average Humidity 72    
Maximum Humidity 100    
Minimum Humidity 43    
Precipitation  
Precipitation 0.02 in 0.11 in 2.60 in (1921)
Month to date precipitation 0.91 0.94  
Year to date precipitation 34.37 26.45  
Snow  
Snow 0.00 in 0.00 in 0.00 in (1894)
Month to date snowfall 0.0 0.0  
Since 1 June snowfall 0.0 0.0  
Since 1 July snowfall 0.0 0.0  
Snow Depth 0.00 in    
Sea Level Pressure  
Sea Level Pressure 29.77 in    
Wind  
Wind Speed 7 mph (West)    
Max Wind Speed 20 mph    
Max Gust Speed 24 mph    
Visibility 7 miles    
Events Fog , Rain , Thunderstorm    
T = Trace of Precipitation, MM = Missing Value Source: NWS Daily Summary

Daily Weather History Graph

Daily Weather History Graph

Search for Another Location

Airport or City:

Astronomy

Aug. 08, 2019 Rise Set
Actual Time 6:07 AM EDT 8:07 PM EDT
Civil Twilight 5:38 AM EDT 8:37 PM EDT
Nautical Twilight 5:02 AM EDT 9:13 PM EDT
Astronomical Twilight 4:23 AM EDT 9:51 PM EDT
Moon 2:41 PM EDT (8/8) 12:28 AM EDT (8/8)
Length of Visible Light 14h 58m
Length of Day
13h 59m
First Quarter, 60% of the Moon is Illuminated
Aug 8
First Quarter
Aug 15
Full
Aug 23
Last Quarter
Aug 30
New
Sep 5
First Quarter

Hourly Weather History & Observations

Time (EDT) Temp. Heat Index Dew Point Humidity Pressure Visibility Wind Dir Wind Speed Gust Speed Precip Events Conditions
12:51 AM 68.0 °F - 66.9 °F 96% 29.79 in 10.0 mi NW 4.6 mph - N/A   Clear
1:51 AM 69.1 °F - 66.9 °F 93% 29.79 in 10.0 mi South 3.5 mph - N/A   Clear
1:58 AM 69.1 °F - 66.9 °F 93% 29.79 in 10.0 mi SSE 4.6 mph - N/A   Scattered Clouds
2:08 AM 69.1 °F - 66.9 °F 93% 29.79 in 10.0 mi South 5.8 mph - N/A   Mostly Cloudy
2:27 AM 69.1 °F - 66.9 °F 93% 29.79 in 10.0 mi Calm Calm - N/A   Scattered Clouds
2:47 AM 68.0 °F - 66.2 °F 94% 29.78 in 10.0 mi Calm Calm - N/A   Mostly Cloudy
2:51 AM 68.0 °F - 66.9 °F 96% 29.78 in 10.0 mi SSW 3.5 mph - N/A   Scattered Clouds
3:36 AM 68.0 °F - 66.9 °F 96% 29.76 in 10.0 mi NW 5.8 mph - N/A   Mostly Cloudy
3:47 AM 68.0 °F - 66.2 °F 94% 29.76 in 9.0 mi NNW 5.8 mph - N/A   Partly Cloudy
3:51 AM 68.0 °F - 66.9 °F 96% 29.76 in 8.0 mi NW 6.9 mph - N/A   Partly Cloudy
4:07 AM 69.1 °F - 68.0 °F 96% 29.77 in 4.0 mi NW 6.9 mph - N/A   Mostly Cloudy
4:51 AM 69.1 °F - 69.1 °F 100% 29.76 in 3.0 mi WNW 5.8 mph - N/A   Overcast
5:09 AM 68.0 °F - 68.0 °F 100% 29.76 in 3.0 mi NW 3.5 mph - N/A   Scattered Clouds
5:51 AM 69.1 °F - 68.0 °F 96% 29.76 in 4.0 mi Calm Calm - N/A   Clear
6:24 AM 68.0 °F - 68.0 °F 100% 29.78 in 2.5 mi Calm Calm - N/A   Clear
6:51 AM 69.1 °F - 69.1 °F 100% 29.78 in 2.5 mi SSW 3.5 mph - N/A   Clear
7:01 AM 70.0 °F - 69.1 °F 97% 29.78 in 2.0 mi SSW 4.6 mph - N/A   Scattered Clouds
7:05 AM 70.0 °F - 70.0 °F 100% 29.78 in 1.2 mi SSW 4.6 mph - N/A   Mostly Cloudy
7:12 AM 70.0 °F - 70.0 °F 100% 29.79 in 0.2 mi SW 3.5 mph - N/A Fog Fog
7:22 AM 70.0 °F - 69.1 °F 97% 29.79 in 0.5 mi WSW 4.6 mph - N/A Fog Fog
7:30 AM 69.1 °F - 69.1 °F 100% 29.79 in 0.2 mi WSW 3.5 mph - N/A Fog Fog
7:51 AM 70.0 °F - 70.0 °F 100% 29.79 in 0.8 mi WSW 4.6 mph - N/A   Overcast
8:11 AM 70.0 °F - 70.0 °F 100% 29.79 in 1.8 mi WSW 4.6 mph - N/A   Overcast
8:18 AM 70.0 °F - 70.0 °F 100% 29.79 in 2.0 mi WSW 4.6 mph - N/A   Overcast
8:32 AM 72.0 °F - 71.1 °F 97% 29.79 in 4.0 mi West 4.6 mph - N/A   Mostly Cloudy
8:46 AM 73.4 °F - 71.6 °F 94% 29.79 in 6.0 mi West 5.8 mph - N/A   Scattered Clouds
8:51 AM 73.0 °F - 71.1 °F 93% 29.78 in 7.0 mi West 5.8 mph - N/A   Partly Cloudy
9:51 AM 78.1 °F - 70.0 °F 76% 29.78 in 10.0 mi Variable 3.5 mph - N/A   Clear
10:51 AM 82.0 °F 84.9 °F 68.0 °F 62% 29.78 in 10.0 mi WSW 4.6 mph - N/A   Clear
11:51 AM 82.9 °F 86.5 °F 69.1 °F 63% 29.78 in 10.0 mi West 4.6 mph - N/A   Scattered Clouds
12:51 PM 86.0 °F 89.4 °F 68.0 °F 55% 29.76 in 10.0 mi Variable 5.8 mph - N/A   Mostly Cloudy
1:51 PM 87.1 °F 90.6 °F 68.0 °F 53% 29.75 in 10.0 mi WSW 11.5 mph - N/A   Mostly Cloudy
2:51 PM 87.1 °F 89.9 °F 66.9 °F 51% 29.74 in 10.0 mi WSW 12.7 mph - N/A   Scattered Clouds
3:51 PM 88.0 °F 90.7 °F 66.9 °F 49% 29.72 in 10.0 mi WSW 17.3 mph 24.2 mph N/A   Scattered Clouds
4:51 PM 88.0 °F 89.3 °F 64.0 °F 45% 29.71 in 10.0 mi West 11.5 mph - N/A   Clear
5:51 PM 88.0 °F 88.4 °F 62.1 °F 42% 29.72 in 10.0 mi West 15.0 mph 19.6 mph N/A   Clear
6:51 PM 86.0 °F 86.3 °F 62.1 °F 44% 29.73 in 10.0 mi WSW 11.5 mph - N/A   Clear
7:29 PM 84.0 °F 84.9 °F 63.0 °F 49% 29.74 in 10.0 mi West 5.8 mph - N/A Thunderstorm Partly Cloudy
7:44 PM 77.0 °F - 66.9 °F 71% 29.75 in 4.0 mi NNW 5.8 mph - 0.02 in Rain Heavy Rain
7:51 PM 77.0 °F - 69.1 °F 76% 29.75 in 9.0 mi North 8.1 mph - 0.02 in Rain Light Rain
8:51 PM 73.0 °F - 68.0 °F 84% 29.76 in 10.0 mi WNW 6.9 mph - 0.00 in   Scattered Clouds
9:51 PM 73.0 °F - 70.0 °F 90% 29.76 in 10.0 mi NNW 9.2 mph - 0.00 in   Scattered Clouds
10:51 PM 73.0 °F - 70.0 °F 90% 29.75 in 10.0 mi NNW 3.5 mph - N/A   Partly Cloudy
11:51 PM 72.0 °F - 70.0 °F 93% 29.75 in 10.0 mi WSW 4.6 mph - N/A   Clear